P/2006 VW139彗星

P/(300163) 2006 VW139 (2011)

English version
Home page
Updated on January 8, 2012

---------------------------------------------------------------------

・ プロフィール

・ 写真集

・ 軌道要素

                    Epoch = 2011 Aug. 27.0 TT
     T = 2011 July 18.5417 TT         Peri. = 281.8862
     e = 0.201125                     Node  =  83.2065  2000.0
     q = 2.437865 AU                  Incl. =   3.2392
       a =  3.051625 AU    n = 0.1848874    P =   5.33 years

・ 光度変化

        H = 16.3  G = 0.15

---------------------------------------------------------------------

軌道要素は、CBET 2920に掲載されたものです。
光度グラフはComet for Windowsで作成したものです。

---------------------------------------------------------------------

Copyright(C) Seiichi Yoshida (comet@aerith.net). All rights reserved.